Tianyao

operational
NORAD ID: 52391 Int'l Des: 2022-046 Owner: CGSTL Country: CN
LEOCIRCULARRETROGRADE

Tianyaoについて

説明を読み込み中...

リアルタイム位置

3D地球を読み込み中...

次回通過

高度履歴

Altitude vs Time

uPlot chart will show altitude changes over time

軌道要素

1 52391U 22046D 26063.58758609 .00186521 00000-0 12091-2 0 9997
2 52391 97.4998 180.2811 0002311 240.7126 119.3908 15.75475925214118
Epoch: Mar 4, 2026 • Age: 23 hours

現在のステータス

高度 351.3 km
速度 7.70 km/s
衛星直下点 44.74°N, 18.94°E
打ち上げ日 Apr 30, 2022
運用期間 3.8 years
タイプ other

技術仕様

分類 Payload
質量 43.00 kg
乾燥質量 43.00 kg
総質量 43.00 kg
長さ 1.50 m
直径 1.00 m
スパン 1.50 m
形状 Box
製造者 CGSTL
バスタイプ JL-1
フェーズステータス In Orbit
所有者/国 CGSTL/CN

大規模コンステレーション

Loading constellations...